IW0RQH-13 Weather Reports


time (UTC)temp
C
wind
direction
speed
KPH
gust
KPH
rain 1hr
cm
rain 24hr
cm
rain mn
cm
humidity
%
barometer
mb
20260508043603 12 153 8.0 16.1 0.00 0.00 0.00 82 1009.8
20260508042705 11 139 11.3 19.3 0.00 0.00 0.00 83 1009.9
20260508041825 11 156 11.3 17.7 0.00 0.00 0.00 83 1010.2
20260508040903 11 138 9.7 17.7 0.00 0.00 0.00 84 1009.8
20260508040004 11 153 6.4 12.9 0.00 0.00 0.00 85 1009.9
20260508035403 11 168 4.8 11.3 0.00 0.00 0.00 84 1010.1
20260508034503 12 144 4.8 14.5 0.00 0.00 0.00 81 1009.9
20260508033603 12 135 9.7 19.3 0.00 0.00 0.00 81 1009.6
20260508032726 11 155 8.0 19.3 0.00 0.00 0.00 82 1009.7
20260508031825 11 159 6.4 11.3 0.00 0.00 0.00 83 1009.7
20260508030903 11 157 6.4 12.9 0.00 0.00 0.00 82 1009.8
20260508030003 11 164 9.7 17.7 0.00 0.00 0.00 82 1009.8
20260508025424 11 165 8.0 14.5 0.00 0.00 0.00 82 1009.8
20260508024503 11 138 4.8 11.3 0.00 0.03 0.00 83 1009.9
20260508023604 11 147 3.2 9.7 0.00 0.03 0.00 84 1009.9
20260508022703 11 151 6.4 12.9 0.00 0.03 0.00 82 1010.3
20260508021824 11 154 8.0 11.3 0.00 0.03 0.00 83 1010.2
20260508020903 11 155 8.0 14.5 0.00 0.03 0.00 83 1010.4
20260508020003 11 153 8.0 14.5 0.00 0.03 0.00 83 1010.3
20260508015403 11 147 8.0 14.5 0.00 0.03 0.00 83 1010.5
20260508014504 11 140 8.0 17.7 0.00 0.03 0.00 83 1010.4
20260508013603 11 172 4.8 9.7 0.00 0.05 0.00 83 1010.6
20260508012724 11 152 6.4 11.3 0.00 0.05 0.00 83 1010.5
20260508011803 12 170 3.2 6.4 0.00 0.05 0.00 82 1010.3
20260508010903 12 162 6.4 9.7 0.00 0.05 0.00 81 1010.8
20260508010024 12 145 6.4 8.0 0.00 0.05 0.00 81 1010.6
20260508005403 12 129 4.8 8.0 0.00 0.05 0.00 81 1010.7
20260508004503 12 157 4.8 9.7 0.00 0.08 0.00 81 1010.6
20260508003603 12 162 4.8 9.7 0.00 0.08 0.00 80 1010.9
20260508002703 12 144 4.8 9.7 0.00 0.08 0.00 80 1010.9
20260508001803 12 133 8.0 11.3 0.00 0.08 0.00 79 1011.0
20260508000903 13 120 9.7 14.5 0.00 0.08 0.00 77 1011.3
20260508000003 13 9 4.8 14.5 0.00 0.08 0.00 77 1011.2
20260507235403 14 354 3.2 11.3 0.00 0.08 0.00 77 1011.3
20260507234503 14 19 3.2 11.3 0.00 0.08 0.00 76 1011.2
20260507233603 14 15 4.8 11.3 0.00 0.08 0.00 74 1011.2
20260507232703 15 341 3.2 8.0 0.00 0.08 0.00 74 1011.4
20260507231824 15 31 6.4 17.7 0.00 0.10 0.00 71 1011.3
20260507230924 15 34 8.0 17.7 0.00 0.10 0.00 70 1011.4
20260507230008 15 43 9.7 14.5 0.00 0.10 0.00 70 1011.8
20260507225403 15 43 8.0 14.5 0.00 0.10 0.00 69 1011.9
20260507224504 16 74 4.8 12.9 0.00 0.10 0.00 68 1012.0
20260507223603 16 99 4.8 9.7 0.00 0.10 0.00 67 1011.9
20260507222704 16 108 4.8 8.0 0.00 0.13 0.00 66 1012.0
20260507221803 16 86 8.0 17.7 0.00 0.13 0.00 66 1012.0
20260507220905 16 96 6.4 17.7 0.00 0.15 0.00 65 1011.9
20260507220005 17 71 11.3 22.5 0.00 0.15 0.00 65 1011.9
20260507215404 17 64 12.9 27.4 0.00 0.18 0.15 65 1011.5
20260507214503 17 63 17.7 30.6 0.00 0.18 0.15 65 1011.6
20260507213603 17 64 17.7 25.7 0.00 0.20 0.15 64 1011.7
20260507212703 17 62 17.7 30.6 0.00 0.23 0.15 65 1011.7
20260507211824 17 69 16.1 27.4 0.00 0.23 0.15 65 1012.0
20260507210903 17 65 17.7 27.4 0.00 0.23 0.15 66 1011.8
20260507210003 17 64 17.7 27.4 0.00 0.23 0.15 66 1011.6
20260507205405 17 68 17.7 25.7 0.00 0.23 0.15 66 1011.9
20260507204503 16 59 16.1 22.5 0.00 0.23 0.15 67 1011.7
20260507203603 16 62 16.1 25.7 0.00 0.23 0.15 66 1012.0
20260507202703 17 62 14.5 24.1 0.00 0.23 0.15 65 1012.0
20260507201803 17 54 17.7 24.1 0.00 0.23 0.15 64 1012.1
20260507200903 17 62 16.1 24.1 0.00 0.23 0.15 62 1011.8
20260507200005 17 62 16.1 25.7 0.00 0.23 0.15 61 1011.9
20260507195403 17 65 16.1 20.9 0.00 0.23 0.15 61 1012.0
20260507194505 17 70 14.5 22.5 0.00 0.23 0.15 62 1011.8
20260507193624 17 73 12.9 19.3 0.00 0.23 0.15 62 1011.9
20260507192705 17 71 12.9 17.7 0.00 0.23 0.15 62 1011.8
20260507191824 17 71 12.9 22.5 0.00 0.23 0.15 62 1011.6
20260507190924 17 70 14.5 20.9 0.00 0.23 0.15 62 1011.7
20260507190004 17 70 14.5 22.5 0.00 0.23 0.15 60 1011.5
20260507185403 17 65 11.3 17.7 0.00 0.23 0.15 60 1011.5
20260507184503 17 67 9.7 17.7 0.00 0.23 0.15 61 1011.6
20260507183603 17 74 6.4 12.9 0.00 0.23 0.15 60 1011.4
20260507182724 18 75 6.4 9.7 0.00 0.23 0.15 58 1011.5
20260507181803 18 74 6.4 9.7 0.00 0.23 0.15 56 1011.7
20260507180904 20 68 4.8 9.7 0.00 0.23 0.15 53 1011.3
20260507180003 21 55 1.6 4.8 0.00 0.23 0.15 49 1011.4
20260507175403 21 5 1.6 4.8 0.00 0.23 0.15 48 1011.3
20260507174524 21 302 1.6 6.4 0.00 0.23 0.15 48 1011.4
20260507173603 21 312 3.2 6.4 0.00 0.23 0.15 46 1011.2
20260507172706 21 269 3.2 4.8 0.00 0.23 0.15 44 1011.3
20260507171803 22 231 3.2 6.4 0.00 0.23 0.15 43 1011.1
20260507170903 22 230 3.2 6.4 0.00 0.23 0.15 42 1011.1
20260507170003 22 228 1.6 6.4 0.00 0.23 0.15 41 1011.1
20260507165403 22 249 3.2 6.4 0.00 0.23 0.15 43 1011.4
20260507164524 22 256 4.8 8.0 0.00 0.23 0.15 43 1011.1
20260507163603 22 236 3.2 6.4 0.00 0.23 0.15 42 1011.0
20260507162703 22 230 4.8 8.0 0.00 0.23 0.15 41 1010.9
20260507161803 21 281 4.8 8.0 0.00 0.23 0.15 43 1011.1
20260507160904 22 260 6.4 12.9 0.00 0.23 0.15 43 1011.1
20260507160003 21 277 6.4 14.5 0.00 0.23 0.15 41 1011.2
20260507155403 22 291 6.4 14.5 0.00 0.23 0.15 41 1011.1
20260507154510 22 312 4.8 9.7 0.00 0.23 0.15 38 1011.1
20260507153606 22 259 3.2 9.7 0.00 0.23 0.15 39 1011.0
20260507152703 21 285 4.8 12.9 0.00 0.23 0.15 38 1011.3
20260507151803 22 259 4.8 14.5 0.00 0.23 0.15 40 1011.1
20260507150903 22 256 4.8 14.5 0.00 0.23 0.15 40 1011.4
20260507150003 22 245 8.0 14.5 0.00 0.23 0.15 42 1011.3
20260507145424 22 256 8.0 16.1 0.00 0.23 0.15 43 1011.4
20260507144503 21 286 6.4 16.1 0.00 0.23 0.15 42 1011.4
20260507143603 21 270 8.0 20.9 0.00 0.23 0.15 42 1011.8
20260507142703 21 292 8.0 17.7 0.00 0.23 0.15 43 1011.8
20260507141803 21 259 8.0 17.7 0.00 0.23 0.15 44 1011.9
20260507140925 21 217 8.0 16.1 0.00 0.23 0.15 43 1012.0
20260507140003 21 240 8.0 16.1 0.00 0.23 0.15 45 1012.1
20260507135403 21 233 6.4 14.5 0.00 0.23 0.15 44 1012.1
20260507134505 21 224 6.4 11.3 0.00 0.23 0.15 43 1012.2
20260507133603 21 211 9.7 19.3 0.00 0.23 0.15 44 1012.3
20260507132703 21 219 9.7 19.3 0.00 0.23 0.15 42 1012.3
20260507131803 21 209 6.4 16.1 0.00 0.23 0.15 40 1012.3
20260507130903 21 210 8.0 16.1 0.00 0.23 0.15 44 1012.4
20260507130003 21 204 6.4 14.5 0.00 0.23 0.15 42 1012.4
20260507125408 21 201 4.8 11.3 0.00 0.23 0.15 43 1012.5
20260507124524 21 222 6.4 14.5 0.00 0.23 0.15 44 1012.5
20260507123603 21 180 6.4 19.3 0.00 0.23 0.15 43 1012.4
20260507122705 21 174 9.7 17.7 0.00 0.23 0.15 45 1012.6
20260507121803 21 183 9.7 14.5 0.00 0.23 0.15 46 1012.6
20260507120903 20 225 6.4 11.3 0.00 0.23 0.15 51 1012.7
20260507120003 21 129 3.2 9.7 0.00 0.23 0.15 50 1012.9
20260507115403 20 136 6.4 14.5 0.00 0.23 0.15 51 1012.8
20260507114524 20 142 8.0 16.1 0.00 0.23 0.15 51 1012.9
20260507113603 20 246 6.4 17.7 0.00 0.23 0.15 51 1012.7
20260507112703 21 187 4.8 11.3 0.00 0.23 0.15 52 1012.8
20260507111804 19 249 4.8 14.5 0.00 0.23 0.15 56 1012.9
20260507110903 20 277 3.2 12.9 0.00 0.23 0.15 57 1013.1
20260507110003 20 129 3.2 8.0 0.00 0.23 0.15 56 1012.9
20260507105404 18 196 4.8 9.7 0.00 0.23 0.15 58 1013.2
20260507104503 19 114 4.8 9.7 0.00 0.23 0.15 59 1013.0
20260507103606 18 57 4.8 9.7 0.00 0.23 0.15 59 1013.2
20260507102704 18 227 4.8 9.7 0.00 0.23 0.15 61 1013.4
20260507101803 18 238 8.0 17.7 0.00 0.23 0.15 63 1013.6
20260507100903 18 240 8.0 19.3 0.00 0.23 0.15 67 1013.4
20260507100003 17 289 3.2 11.3 0.00 0.23 0.15 64 1013.3
20260507095403 18 254 4.8 12.9 0.00 0.23 0.15 66 1013.4
20260507094503 19 182 6.4 12.9 0.00 0.23 0.15 63 1013.5
20260507093603 19 200 6.4 11.3 0.00 0.23 0.15 64 1013.6
20260507092706 19 143 4.8 9.7 0.00 0.23 0.15 61 1013.6
20260507091803 18 99 4.8 9.7 0.00 0.23 0.15 65 1013.7
20260507090903 18 112 4.8 8.0 0.00 0.23 0.15 66 1013.6
20260507090004 16 145 4.8 12.9 0.00 0.23 0.15 70 1013.7
20260507085406 17 79 4.8 11.3 0.00 0.23 0.15 71 1013.7
20260507084505 17 109 6.4 12.9 0.00 0.23 0.15 69 1013.7
20260507083603 17 131 6.4 11.3 0.00 0.23 0.15 69 1013.3
20260507082703 16 167 3.2 9.7 0.00 0.23 0.15 72 1013.7
20260507081803 17 146 8.0 16.1 0.00 0.23 0.15 72 1013.7
20260507080903 17 173 4.8 9.7 0.00 0.23 0.15 70 1013.8
20260507080003 17 160 6.4 9.7 0.00 0.23 0.15 71 1013.7
20260507075403 16 145 6.4 12.9 0.00 0.23 0.15 73 1013.7
20260507074503 16 134 6.4 12.9 0.00 0.23 0.15 74 1013.7
20260507073603 15 146 8.0 12.9 0.00 0.23 0.15 77 1013.9
20260507072718 14 163 6.4 12.9 0.00 0.23 0.15 81 1013.9
20260507071803 15 160 8.0 14.5 0.00 0.23 0.15 83 1013.5
20260507070903 15 148 6.4 11.3 0.00 0.23 0.15 84 1013.7
20260507070005 15 149 6.4 16.1 0.00 0.23 0.15 83 1013.9
20260507065403 15 143 8.0 14.5 0.00 0.23 0.15 82 1013.7
20260507064504 15 145 6.4 12.9 0.00 0.23 0.15 82 1013.7
20260507063606 15 155 4.8 9.7 0.00 0.23 0.15 81 1013.5
20260507062704 15 150 4.8 8.0 0.00 0.25 0.15 82 1013.6
20260507061804 14 137 4.8 9.7 0.00 0.25 0.15 87 1013.5
20260507060905 13 91 4.8 6.4 0.00 0.28 0.15 88 1013.5
20260507060003 13 89 4.8 8.0 0.00 0.28 0.15 88 1013.4
20260507055403 13 90 4.8 8.0 0.00 0.28 0.15 88 1013.4
20260507054505 13 103 4.8 8.0 0.00 0.30 0.15 89 1013.6
20260507053603 13 123 8.0 12.9 0.00 0.30 0.15 89 1013.3
20260507052704 13 140 8.0 11.3 0.00 0.33 0.15 90 1013.2
20260507051824 13 108 6.4 11.3 0.00 0.33 0.15 90 1013.3
20260507050903 13 117 4.8 8.0 0.00 0.33 0.15 93 1013.2
20260507050024 13 130 3.2 4.8 0.00 0.33 0.15 92 1013.3
20260507045403 13 162 3.2 6.4 0.00 0.33 0.15 93 1013.2
20260507044504 13 155 3.2 4.8 0.00 0.36 0.15 93 1013.0